Weather Roundup
Issued by NWS Chicago, IL

Home | Current Version | Previous Version | Graphics & Text | Print | Product List | Glossary On
Versions: 1 2 3 4 5 6 7 8 9 10 11 12 13 14 15 16 17 18 19 20 21 22 23 24 25 26 27 28 29 30 31 32 33 34 35 36 37 38 39 40 41 42 43 44 45 46 47 48 49 50
000
NZUS59 KLOT 262103
HRRLOT

CHICAGO AREA WEATHER ROUNDUP
NATIONAL WEATHER SERVICE CHICAGO/ROMEOVILLE IL
400 PM CDT THU APR 26 2018

NOTE: "FAIR" INDICATES FEW OR NO CLOUDS BELOW 12,000 FEET WITH NO
SIGNIFICANT WEATHER AND/OR OBSTRUCTIONS TO VISIBILITY.

* THESE STATIONS ARE NOT UNDER NWS QUALITY CONTROL. THEY ALSO MAY NOT
  REPORT WEATHER SUCH AS PRECIPITATION OR FOG.

ILZ005-006-012>014-019>023-262200-
NORTHEAST ILLINOIS

CITY           SKY/WX    TMP DP  RH WIND       PRES   REMARKS
OHARE          CLOUDY    65  29  25 W9G17     29.86F
MIDWAY         CLOUDY    65  29  25 W10       29.87F
AURORA           N/A     65  32  29 VRB6      29.87F
LANSING*         N/A     64  35  34 W7        29.88F
JOLIET*          N/A     67  31  26 CALM      29.88F
WAUKEGAN         N/A     54  29  38 S10       29.87F
DUPAGE AIRPORT   N/A     65  31  28 W10       29.86F
WHEELING         N/A     65  28  24 VRB7      29.88F
KANKAKEE*        N/A     65  28  25 W5        29.89F
MORRIS*          N/A     67  28  23 NW3       29.87F
LEWIS AIRPORT*   N/A     66  32  28 W5        29.88F
NORTHERLY ISL    N/A     51  31  46 E3          N/A
$$

WIZ051-052-058>065-066-070>072-262200-
SOUTHEAST WISCONSIN

CITY           SKY/WX    TMP DP  RH WIND       PRES   REMARKS
MILWAUKEE      PTSUNNY   62  36  37 S8        29.84F
KENOSHA*         N/A     62  32  32 S12       29.86F
RACINE*          N/A     53  29  39 S15       29.88F
BURLINGTON       N/A     66  29  25 SW8       29.85F
WAUKESHA       SUNNY     63  30  29 SW6G18    29.85F
WEST BEND        N/A     64  27  24 SW13      29.82F
$$

INZ001>003-010>013-019-020-262200-
NORTHWEST INDIANA

CITY           SKY/WX    TMP DP  RH WIND       PRES   REMARKS
GARY*          PTSUNNY   63  18  17 E10       29.90
MICHIGAN CITY* NOT AVBL
RENSSELAER*    NOT AVBL
VALPARAISO       N/A     64  28  25 N8        29.89F
$$

LMZ740>746-262200-
SOUTHERN LAKE MICHIGAN

STATION/POSITION TIME  SKY/WX   TEMP WIND        PRES    VSBY
                                AIR  DIR/SP/G
                 (UTC)          (F)  (DEG/KT/KT) (MB)    (MI)
HARRISON CRIB    2040            48  100/ 11/ 11   N/A
BURNHAM HARBOR   2100            51  120/  3/  5   N/A
CALUMET HARBOR   2030            51   60/  8/ 10 1011.9F
BURNS HARBOR     2040            47   60/  5/  7 1013.5F
MICHIGAN CITY    2040            43   20/  4/  4   N/A
$$

ABBREVIATIONS USED IN REMARKS
   TC - TEMPERATURE IN CELSIUS
  WCI - WIND CHILL INDEX
   HX - HEAT INDEX
  VSB - VISIBILITY
$$




USA.gov is the U.S. government's official web portal to all federal, state and local government web resources and services.